Location: Vassar Physics Lab
(41.6843°N, 73.8954°W)
Time: 12:25:08
(UTC-04:00)

Daily predictions for brighter satellites

Satellite Brightness Start Highest point End
(mag) Time Altitude Azimuth Time Altitude Azimuth Time Altitude Azimuth
BREEZE-M DEB (TANK) 4.3 20:40:53 10° WNW 20:44:42 46° SSW 20:57:06 10° SE
ATLAS 3B R/B 4.4 20:45:12 10° SE 20:48:34 13° ESE 20:51:55 10° ENE
APEX 4.0 20:47:10 10° NNW 20:51:03 48° ENE 20:56:01 10° SE
Resurs 01 Rocket 4.4 20:49:04 10° SW 20:51:58 17° W 20:54:53 10° NW
Cosmos 2228 3.5 20:48:47 10° N 20:53:01 43° ENE 20:57:14 10° SSE
Cosmos 2098 Rocket 4.1 20:51:30 10° NNW 20:54:39 38° W 20:58:27 10° SSW
Cosmos 1743 2.9 20:50:49 10° N 20:54:41 75° W 20:58:28 10° S
Lacrosse 5 rocket 2.3 20:51:27 10° WSW 20:55:12 50° NW 20:59:10 10° NE
Cosmos 1025 Rocket 3.6 20:51:17 10° SSW 20:55:39 63° W 21:00:00 10° N
Meteor 1-23 Rocket 4.3 20:50:40 10° S 20:56:15 68° E 21:01:57 10° NNE
Cosmos 2251 Rocket 3.9 20:52:17 10° SSW 20:57:35 73° WNW 21:02:57 10° NNE
Cosmos 1892 Rocket 3.8 20:59:23 10° SSW 21:03:48 76° W 21:08:17 10° N
ERS-1 Rocket 3.0 20:59:00 10° SSE 21:04:01 89° E 21:09:04 10° NNW
Cosmos 1603 4.2 20:59:47 10° S 21:04:56 38° ESE 21:10:04 10° NE
USA 234 3.9 20:59:27 10° ESE 21:05:45 51° NNE 21:12:03 10° NW
Envisat 3.3 21:03:02 10° SE 21:07:56 51° ENE 21:12:51 10° N
Meteor 2-9 Rocket 4.3 21:03:47 10° N 21:09:29 76° E 21:15:17 10° SSE
SJ-11-01 4.3 21:05:28 10° SSE 21:10:08 88° W 21:14:50 10° NNW
USA 186 3.9 21:11:29 10° SSW 21:13:46 21° W 21:15:57 10° NW
Abrixas rocket 2.4 21:12:15 10° WNW 21:15:40 66° SSW 21:18:26 15° SE
Meteor 2-4 Rocket 4.0 21:10:09 10° SSW 21:16:00 82° W 21:21:58 10° N
Okean 2 3.7 21:14:05 10° SSW 21:18:15 74° W 21:22:26 10° N
Cosmos 2297 4.5 21:14:12 10° NNW 21:19:43 52° WSW 21:25:14 10° S
BREEZE M DEB (TANK) 1.8 21:17:13 10° WNW 21:20:12 56° N 21:21:56 12° E
Cosmos 1513 Rocket 4.5 21:15:39 10° N 21:21:59 81° E 21:28:10 10° S
Tsikada Rocket 4.2 21:18:22 10° S 21:24:38 59° E 21:30:54 10° NNE
Timation 1 Rocket 4.4 21:18:46 10° NNW 21:24:49 80° ENE 21:30:11 13° SSE
Cosmos 1943 4.2 21:25:39 12° SSE 21:29:41 25° ESE 21:34:15 10° NE
YAOGAN 6 3.6 21:27:50 17° SE 21:30:10 32° ENE 21:33:32 10° N
PSLV R/B 3.7 21:30:11 10° SW 21:33:33 42° SSE 21:36:28 13° E
ISS -2.4 21:30:51 10° SSW 21:33:38 27° SE 21:36:27 10° ENE
Cosmos 1943 Rocket 4.3 21:34:50 10° NNE 21:37:47 14° NE 21:40:45 10° E
Cosmos 1461 2.9 21:35:01 10° NW 21:39:20 79° WSW 21:42:09 19° SSE
CZ-2C R/B 3.5 21:38:29 10° SW 21:39:38 13° W 21:40:47 10° WNW
MetOp-A 4.2 21:35:19 15° SSE 21:39:49 69° ENE 21:45:10 10° N
SPOT 5 2.6 21:36:20 13° SSE 21:40:14 90° SSW 21:44:36 10° NNW
Cosmos 1602 Rocket 3.8 21:42:25 10° SSW 21:46:53 72° W 21:51:22 10° N
CZ-4 SHROUD 3.9 21:46:44 15° S 21:49:07 51° W 21:52:14 10° NNW
H-2A R/B 3.4 21:48:11 16° ESE 21:50:46 24° ENE 21:54:44 10° NNE
SL-08 RB Rocket 4.4 21:49:11 21° SE 21:51:38 38° ENE 21:55:51 10° N
Cosmos 1825 Rocket 4.1 21:49:40 22° SSE 21:52:02 40° E 21:56:11 10° NNE
Aureole 2 Rocket 4.4 21:50:49 10° SW 21:54:24 33° WNW 21:57:42 10° N
Cosmos 1812 Rocket 3.6 21:52:55 10° N 21:57:18 80° W 22:00:27 19° S
SPOT 1/Viking Rocket 3.5 21:55:43 21° SSE 21:59:10 73° ENE 22:04:19 10° N
Geosat 4.4 21:56:47 10° NE 22:01:31 40° ESE 22:04:15 22° SSE
Terra 3.1 22:00:40 20° ESE 22:02:44 27° ENE 22:06:42 10° N
Cosmos 1190 Rocket 4.5 22:00:19 22° SSE 22:03:15 42° ESE 22:08:14 10° NNE
Cosmos 1634 Rocket 4.1 21:59:01 10° N 22:05:09 62° E 22:08:55 24° SSE
USA 245 4.3 22:05:43 20° SSE 22:10:02 89° WSW 22:15:21 10° NNW
H-2A R/B 4.3 22:07:10 10° SW 22:10:18 20° W 22:13:31 10° NW
SeaSat 1 3.2 22:07:21 18° S 22:10:44 47° WSW 22:15:31 10° NW
Atlas Centaur 2 3.6 22:04:24 10° SW 22:11:23 35° S 22:15:35 23° SE
Cosmos 2369 Rocket 2.4 22:08:00 10° NNW 22:13:38 60° ENE 22:16:29 29° SE
ARGOS 3.1 22:10:34 26° SSE 22:13:46 79° ENE 22:19:13 10° N
CZ-4C R/B 3.7 22:12:56 33° SE 22:14:34 57° ENE 22:18:36 10° N
DEBRIS 3.7 22:12:02 10° WNW 22:15:10 22° SW 22:15:34 22° SW
CZ-4B R/B 3.7 22:12:22 10° N 22:17:25 71° WNW 22:22:34 10° SSW
NOAA 11 4.1 22:22:44 29° SSE 22:25:39 89° WSW 22:31:07 10° NNW
COSMOS 2455 3.1 22:21:51 10° SW 22:27:50 71° WNW 22:33:52 10° NNE
Cosmos 2279 Rocket 4.2 22:23:36 10° N 22:29:45 57° E 22:32:31 32° SE
Cosmos 1953 3.6 22:30:41 10° NNE 22:34:04 26° ENE 22:34:19 26° E
Cosmos 1953 Rocket 3.5 22:35:33 36° S 22:37:19 87° W 22:41:47 10° N
Cosmos 2263 4.3 22:31:44 10° NNW 22:37:20 67° ENE 22:39:31 37° SE
Meteor 1-22 Rocket 4.2 22:31:51 10° N 22:37:26 88° E 22:40:02 34° S
ATLAS 3B R/B 2.9 22:30:29 10° SSW 22:38:08 71° ESE 22:45:39 10° NE
COSMOS 2406 4.4 22:39:06 24° E 22:39:06 24° E 22:43:32 10° NE
IGS 5A 3.6 22:43:55 52° ESE 22:44:36 60° ENE 22:48:42 10° N
USA 234 3.6 22:45:49 32° S 22:48:42 53° SW 22:55:07 10° NW
Cosmos 407 Rocket 3.4 22:49:26 30° SSW 22:52:05 90° W 22:57:20 10° NNE
SL-27 R/B 4.3 22:55:23 20° NE 22:55:23 20° NE 22:56:48 10° NE
Cosmos 1346 Rocket 3.5 22:56:00 35° SW 22:57:14 50° WNW 23:01:04 10° N
Cosmos-2242 3.0 22:53:29 10° N 22:57:53 64° E 22:58:21 59° ESE
SL-24 R/B 4.4 22:54:08 10° N 22:59:04 86° W 23:00:48 43° S
SL-23 DEB 4.3 22:53:23 10° SW 23:01:53 17° ENE 23:02:44 10° ENE
Lacrosse 4 Rocket 1.3 22:59:12 54° SW 23:00:02 79° WNW 23:04:10 10° NNE
ISS -1.9 23:06:54 10° W 23:09:59 38° NNW 23:13:05 10° NE
BREEZE-M DEB (TANK) 4.3 23:08:10 10° WNW 23:09:51 21° NNW 23:09:51 21° NNW
Cosmos 1954 Rocket 3.9 23:09:47 52° S 23:11:05 78° ESE 23:16:24 10° NNE
Cosmos 1758 Rocket 4.4 23:10:06 31° SW 23:11:42 45° WNW 23:15:55 10° N
USA 238 DEB 3.9 23:10:59 42° SSE 23:12:50 52° ESE 23:19:39 10° NE
USA 238 3.9 23:11:09 42° SSE 23:12:56 51° ESE 23:19:44 10° NE
Cosmos 1943 4.1 23:07:58 10° SW 23:13:25 47° WNW 23:18:54 10° NNE
Cosmos 1842 3.3 23:13:33 70° W 23:13:40 71° W 23:17:36 10° N
CARTOSAT-1 4.0 23:14:29 47° SW 23:15:07 51° W 23:19:20 10° NNW
CZ-4B R/B 4.2 23:17:06 12° ENE 23:17:06 12° ENE 23:18:24 10° NE
Cosmos 1544 4.4 23:14:40 10° N 23:17:29 32° NE 23:17:29 32° NE
Cosmos 1758 3.3 23:14:59 10° N 23:19:02 85° NNE 23:19:02 85° NNE
Cosmos 1943 Rocket 2.1 23:16:49 10° NNW 23:22:24 84° ENE 23:23:31 59° SSE
Spot 4 4.0 23:22:16 53° SW 23:23:01 61° W 23:27:45 10° NNW
ALOS 2 4.3 23:25:26 21° ENE 23:25:46 21° ENE 23:29:02 10° NNE
Cosmos 1741 Rocket 4.2 23:27:52 53° ESE 23:27:54 53° ESE 23:33:04 10° NNE
Meteor 2-5 Rocket 4.3 23:28:42 41° ESE 23:29:14 42° E 23:34:41 10° NNE
H-2A R/B 2.8 23:28:49 35° SW 23:29:56 41° W 23:34:41 10° NNW
Cosmos 1092 Rocket 4.0 23:33:02 53° SSE 23:34:27 69° E 23:40:42 10° NNE
Cosmos 1656 Rocket 4.0 23:33:59 10° NNW 23:39:36 57° ENE 23:40:41 49° ESE
Terra 2.9 23:39:33 31° WSW 23:40:20 33° W 23:44:37 10° NNW
Cosmos 1842 Rocket 3.5 23:37:22 10° N 23:41:34 79° NW 23:41:34 79° NW
Cosmos 1570 Rocket 3.9 23:37:37 10° NNW 23:43:00 89° ENE 23:43:34 73° SSE
Cosmos 1733 4.4 23:42:33 10° N 23:45:24 37° NE 23:45:24 37° NE
Cosmos 1850 Rocket 3.8 23:46:11 77° SSE 23:46:30 81° ESE 23:51:44 10° NNE
Nadezhda 4 Rocket 4.1 23:45:01 46° SSW 23:46:59 72° W 23:53:21 10° N
CZ-4C R/B 3.4 23:54:52 27° E 23:54:52 27° E 23:58:33 10° NE
